Torna al catalogo

CZ-6A DEB

AttivoSSO
NORAD 58431·DEBRIS·🇨🇳 China

Lanciato Nov 11, 2022 da Taiyuan Satellite Launch Center

Loading…

Prossimi Passaggi (prossime 24 ore)

TLE

AggiornatoSource: Space-Track

Epoca: Sep 12, 2026, 05:56 UTC

1 58431U 22151AHZ 26255.24752050  .00003115  00000-0  13530-2 0  9991
2 58431  98.8341 267.0378 0050916  69.6479 291.0159 14.24163971179160

Traccia CZ-6A DEB in tempo reale con AllMySat

Download on the App Store